カタログに戻る

THOR ABLESTAR DEB

運用中LEO
NORAD 420·DEBRIS·🇺🇸 United States

打ち上げ Jun 29, 1961 から Cape Canaveral Space Force Station

Loading…

次のパス (今後24時間)

TLE

最新Source: Space-Track

元期: Sep 9, 2026, 20:42 UTC

1 00420U 61015EV  26252.86276439  .00000672  00000-0  26030-3 0  9990
2 00420  66.8126  54.9711 0079763 149.2182 211.3633 14.34194311365726

AllMySatでTHOR ABLESTAR DEBをリアルタイム追跡

Download on the App Store